TimeAKDT,TemperatureF,Dew PointF,Humidity,Sea Level PressureIn,VisibilityMPH,Wind Direction,Wind SpeedMPH,Gust SpeedMPH,PrecipitationIn,Events,Conditions,WindDirDegrees,DateUTC
12:53 AM,48.0,46.0,93,29.24,10.0,Calm,Calm,-,0.01,Rain,Light Rain,0,2013-09-20 08:53:00
1:53 AM,46.9,45.0,93,29.22,10.0,Calm,Calm,-,0.02,Rain,Light Rain,0,2013-09-20 09:53:00
2:53 AM,48.0,45.0,89,29.21,9.0,NNE,4.6,-,0.07,Rain,Light Rain,20,2013-09-20 10:53:00
3:53 AM,48.0,46.0,93,29.20,10.0,Calm,Calm,-,0.01,Rain,Light Rain,0,2013-09-20 11:53:00
4:53 AM,48.0,46.0,93,29.19,10.0,Calm,Calm,-,0.04,Rain,Light Rain,0,2013-09-20 12:53:00
5:53 AM,48.0,46.0,93,29.19,8.0,Calm,Calm,-,0.01,Rain,Light Rain,0,2013-09-20 13:53:00
6:53 AM,48.0,46.0,93,29.18,9.0,Calm,Calm,-,0.04,Rain,Light Rain,0,2013-09-20 14:53:00
7:53 AM,48.0,46.0,93,29.17,10.0,Calm,Calm,-,0.02,Rain,Light Rain,0,2013-09-20 15:53:00
8:53 AM,50.0,46.9,89,29.16,9.0,Calm,Calm,-,0.03,Rain,Light Rain,0,2013-09-20 16:53:00
9:53 AM,50.0,46.9,89,29.17,8.0,Calm,Calm,-,0.02,Rain,Light Rain,0,2013-09-20 17:53:00
10:53 AM,48.9,46.9,93,29.17,4.0,Calm,Calm,-,0.09,Rain,Rain,0,2013-09-20 18:53:00
11:53 AM,50.0,48.0,93,29.18,6.0,WSW,3.5,-,0.06,Rain,Light Rain,240,2013-09-20 19:53:00
12:53 PM,51.1,48.9,92,29.17,5.0,Calm,Calm,-,0.05,Rain,Light Rain,0,2013-09-20 20:53:00
1:53 PM,48.9,46.0,90,29.19,6.0,SW,5.8,-,0.04,Rain,Light Rain,230,2013-09-20 21:53:00
2:53 PM,48.9,46.9,93,29.19,7.0,WSW,4.6,-,0.02,Rain,Light Rain,240,2013-09-20 22:53:00
3:53 PM,48.0,46.0,93,29.18,10.0,SW,4.6,-,0.01,Rain,Light Rain,230,2013-09-20 23:53:00
4:53 PM,50.0,48.9,96,29.18,10.0,Calm,Calm,-,0.01,Rain,Light Rain,0,2013-09-21 00:53:00
5:21 PM,50.0,48.2,94,29.16,8.0,Calm,Calm,-,0.01,Rain,Light Rain,0,2013-09-21 01:21:00
5:53 PM,48.9,48.0,97,29.17,10.0,Calm,Calm,-,0.01,,Overcast,0,2013-09-21 01:53:00
6:20 PM,48.2,48.2,100,29.16,10.0,Calm,Calm,-,0.01,,Overcast,0,2013-09-21 02:20:00
6:53 PM,50.0,48.0,93,29.15,9.0,Calm,Calm,-,0.01,Rain,Light Rain,0,2013-09-21 02:53:00
7:17 PM,48.2,46.4,93,29.16,10.0,Calm,Calm,-,0.00,Rain,Light Rain,0,2013-09-21 03:17:00
7:53 PM,50.0,48.0,93,29.15,9.0,Calm,Calm,-,0.03,Rain,Light Rain,0,2013-09-21 03:53:00
8:03 PM,48.2,48.2,100,29.15,6.0,Calm,Calm,-,0.00,Rain,Light Rain,0,2013-09-21 04:03:00
8:19 PM,50.0,48.2,94,29.14,5.0,Calm,Calm,-,0.00,Rain,Light Rain,0,2013-09-21 04:19:00
8:53 PM,50.0,48.0,93,29.15,6.0,Calm,Calm,-,0.02,Rain,Light Rain,0,2013-09-21 04:53:00
9:53 PM,50.0,48.0,93,29.13,5.0,Calm,Calm,-,0.01,Rain,Light Rain,0,2013-09-21 05:53:00
10:12 PM,50.0,48.2,94,29.13,7.0,Calm,Calm,-,0.01,Rain,Light Rain,0,2013-09-21 06:12:00
10:29 PM,50.0,48.2,94,29.14,8.0,Calm,Calm,-,0.01,Rain,Light Rain,0,2013-09-21 06:29:00
10:53 PM,50.0,48.0,93,29.14,2.5,Calm,Calm,-,0.05,Rain,Rain,0,2013-09-21 06:53:00
11:00 PM,48.2,48.2,100,29.13,1.8,Calm,Calm,-,0.01,Rain,Light Rain,0,2013-09-21 07:00:00
11:18 PM,48.2,46.4,93,29.13,1.0,Calm,Calm,-,0.02,Rain,Light Rain,0,2013-09-21 07:18:00
11:30 PM,48.2,46.4,93,29.14,1.2,Calm,Calm,-,0.03,Rain,Light Rain,0,2013-09-21 07:30:00
11:35 PM,50.0,48.2,94,29.14,2.0,NNE,3.5,-,0.03,Rain,Light Rain,20,2013-09-21 07:35:00
11:38 PM,48.2,46.4,93,29.13,3.0,NNE,3.5,-,0.03,Rain,Light Rain,30,2013-09-21 07:38:00
11:50 PM,51.8,48.2,88,29.13,7.0,ENE,5.8,-,0.04,Rain,Light Rain,60,2013-09-21 07:50:00
11:53 PM,51.1,48.0,89,29.13,8.0,NE,5.8,-,0.04,Rain,Light Rain,50,2013-09-21 07:53:00